Weather History for Ainsworth, NE

Change the Weather History Date:

Monday, March 25, 2013

  Actual Average Record
Temperature  
Mean Temperature 20 °F -  
Max Temperature 27 °F 49 °F 80 °F (1998)
Min Temperature 14 °F 27 °F 8 °F (2002)
Degree Days  
Heating Degree Days 44    
Moisture  
Dew Point 13 °F    
Average Humidity 73    
Maximum Humidity 86    
Minimum Humidity 55    
Precipitation  
Precipitation 0.00 in - - ()
Sea Level Pressure  
Sea Level Pressure 30.26 in    
Wind  
Wind Speed 12 mph (NNW)    
Max Wind Speed 21 mph    
Max Gust Speed 25 mph    
Visibility 8 miles    
Events Snow    
Averages and records for this station are not official NWS values.
T = Trace of Precipitation, MM = Missing Value Source: NWS Daily Summary

Daily Weather History Graph

Daily Weather History Graph

Search for Another Location

Airport:

Trip Planner

Search our weather history database for the weather conditions in past years. The results will help you decide how hot, cold, wet, or windy it might be!

Date:

Astronomy

Mar. 25, 2013 Rise Set
Actual Time 7:33 AM CDT 7:58 PM CDT
Civil Twilight 7:05 AM CDT 8:26 PM CDT
Nautical Twilight 6:32 AM CDT 8:59 PM CDT
Astronomical Twilight 5:58 AM CDT 9:34 PM CDT
Moon 6:30 PM CDT (3/25) 6:20 AM CDT (3/25)
Length of Visible Light 13h 20m
Length of Day
12h 24m
Waxing Gibbous, 96% of the Moon is Illuminated
Mar 25
Waxing Gibbous
Mar 27
Full
Apr 2
Last Quarter
Apr 10
New
Apr 18
First Quarter

Hourly Weather History & Observations

Time (CDT) Temp. Windchill Dew Point Humidity Pressure Visibility Wind Dir Wind Speed Gust Speed Precip Events Conditions
12:15 AM 21.2 °F 9.5 °F 16.3 °F 82% 30.19 in 5.0 mi NNW 11.5 mph - N/A Snow Light Snow
12:35 AM 21.6 °F 8.8 °F 16.7 °F 82% 30.20 in 10.0 mi NNW 13.8 mph - N/A Snow Light Snow
12:55 AM 21.6 °F 7.8 °F 16.7 °F 82% 30.20 in 4.0 mi NNW 16.1 mph 21.9 mph N/A Snow Light Snow
1:15 AM 21.7 °F 10.2 °F 17.6 °F 84% 30.20 in 2.5 mi NNW 11.5 mph - N/A Snow Light Snow
1:35 AM 21.7 °F 6.3 °F 16.7 °F 81% 30.21 in 5.0 mi NNW 20.7 mph 25.3 mph N/A   Haze
1:55 AM 21.2 °F 6.8 °F 16.7 °F 83% 30.21 in 2.0 mi NNW 17.3 mph 21.9 mph N/A Snow Light Snow
2:15 AM 21.2 °F 7.3 °F 16.5 °F 82% 30.21 in 5.0 mi NNW 16.1 mph - N/A Snow Light Snow
2:35 AM 20.8 °F 7.9 °F 15.1 °F 78% 30.22 in 10.0 mi NNW 13.8 mph - N/A   Mostly Cloudy
2:55 AM 20.7 °F 8.2 °F 15.3 °F 80% 30.22 in 5.0 mi NNW 12.7 mph - N/A Snow Light Snow
3:15 AM 21.0 °F 8.1 °F 16.5 °F 83% 30.22 in 3.0 mi NNW 13.8 mph - N/A Snow Light Snow
3:35 AM 21.2 °F 7.8 °F 17.2 °F 85% 30.22 in 3.0 mi NW 15.0 mph 18.4 mph N/A Snow Light Snow
3:55 AM 20.7 °F 6.6 °F 16.2 °F 83% 30.22 in 2.5 mi NW 16.1 mph 25.3 mph N/A Snow Light Snow
4:15 AM 19.9 °F 4.8 °F 14.9 °F 81% 30.22 in 5.0 mi NNW 18.4 mph 25.3 mph N/A   Haze
4:35 AM 19.2 °F 5.8 °F 12.7 °F 76% 30.22 in 10.0 mi NNW 13.8 mph - N/A   Mostly Cloudy
4:55 AM 18.9 °F 4.8 °F 12.7 °F 77% 30.23 in 10.0 mi NW 15.0 mph 20.7 mph N/A Snow Light Snow
5:15 AM 18.5 °F 6.1 °F 13.3 °F 80% 30.23 in 10.0 mi NW 11.5 mph - N/A Snow Light Snow
5:35 AM 17.4 °F 4.7 °F 12.2 °F 80% 30.23 in 10.0 mi NW 11.5 mph - N/A   Clear
5:55 AM 15.8 °F 2.1 °F 12.2 °F 86% 30.24 in 10.0 mi NW 12.7 mph - N/A   Clear
6:15 AM 15.8 °F 2.7 °F 11.1 °F 82% 30.24 in 10.0 mi NW 11.5 mph - N/A   Clear
6:35 AM 15.6 °F 1.8 °F 10.4 °F 80% 30.24 in 10.0 mi NW 12.7 mph - N/A   Clear
6:55 AM 15.3 °F 2.8 °F 9.3 °F 77% 30.25 in 10.0 mi NW 10.4 mph - N/A   Clear
7:15 AM 14.7 °F 2.9 °F 8.6 °F 77% 30.25 in 10.0 mi NW 9.2 mph - N/A   Clear
7:35 AM 14.5 °F 2.7 °F 8.6 °F 77% 30.26 in 10.0 mi NW 9.2 mph - N/A   Mostly Cloudy
7:55 AM 14.7 °F 2.1 °F 8.6 °F 77% 30.26 in 10.0 mi NW 10.4 mph - N/A   Mostly Cloudy
8:15 AM 15.1 °F 2.5 °F 9.7 °F 79% 30.27 in 3.0 mi NW 10.4 mph - N/A Snow Light Snow
8:35 AM 15.8 °F 5.1 °F 10.4 °F 79% 30.27 in 2.0 mi NW 8.1 mph - N/A Snow Light Snow
8:55 AM 16.9 °F 4.8 °F 11.3 °F 79% 30.28 in 3.0 mi NW 10.4 mph - N/A Snow Light Snow
9:15 AM 17.4 °F 4.7 °F 11.8 °F 79% 30.28 in 2.0 mi WNW 11.5 mph - N/A Snow Light Snow
9:35 AM 17.6 °F 2.2 °F 11.1 °F 76% 30.28 in 3.0 mi NW 17.3 mph - N/A Snow Light Snow
9:55 AM 18.0 °F 4.2 °F 11.5 °F 76% 30.29 in 2.5 mi NNW 13.8 mph - N/A Snow Light Snow
10:15 AM 18.1 °F 2.4 °F 10.9 °F 73% 30.29 in 5.0 mi NW 18.4 mph 24.2 mph N/A Snow Light Snow
10:35 AM 18.5 °F 4.3 °F 11.3 °F 73% 30.29 in 7.0 mi NNW 15.0 mph - N/A Snow Light Snow
10:55 AM 19.0 °F 3.6 °F 11.7 °F 73% 30.30 in 10.0 mi NNW 18.4 mph - N/A Snow Light Snow
11:15 AM 19.0 °F 5.0 °F 11.5 °F 72% 30.30 in 2.5 mi NNW 15.0 mph - N/A Snow Light Snow
11:35 AM 19.9 °F 6.7 °F 12.6 °F 73% 30.30 in 4.0 mi NW 13.8 mph - N/A Snow Light Snow
11:55 AM 20.7 °F 5.7 °F 11.7 °F 68% 30.30 in 10.0 mi NNW 18.4 mph - N/A   Overcast
12:15 PM 20.7 °F 7.1 °F 12.0 °F 69% 30.30 in 4.0 mi NNW 15.0 mph - N/A Snow Light Snow
12:35 PM 21.2 °F 8.3 °F 12.6 °F 69% 30.30 in 4.0 mi NW 13.8 mph - N/A Snow Light Snow
12:55 PM 22.1 °F 10.0 °F 13.5 °F 69% 30.30 in 7.0 mi NNW 12.7 mph - N/A Snow Light Snow
1:15 PM 22.5 °F 9.9 °F 12.7 °F 66% 30.30 in 7.0 mi NNW 13.8 mph 18.4 mph N/A Snow Light Snow
1:35 PM 23.0 °F 10.6 °F 12.6 °F 64% 30.30 in 7.0 mi NNW 13.8 mph - N/A Snow Light Snow
1:55 PM 23.4 °F 11.6 °F 12.7 °F 64% 30.29 in 7.0 mi NW 12.7 mph 18.4 mph N/A Snow Light Snow
2:15 PM 23.4 °F 11.1 °F 11.5 °F 60% 30.29 in 10.0 mi NNW 13.8 mph - N/A   Overcast
2:35 PM 23.4 °F 11.1 °F 12.4 °F 63% 30.29 in 10.0 mi NNW 13.8 mph 17.3 mph N/A Snow Light Snow
2:55 PM 23.0 °F 12.4 °F 11.8 °F 62% 30.29 in 10.0 mi NNW 10.4 mph - N/A Snow Light Snow
3:15 PM 24.4 °F 14.2 °F 11.7 °F 58% 30.29 in 10.0 mi NNW 10.4 mph - N/A Snow Light Snow
3:35 PM 24.8 °F 13.4 °F 11.8 °F 58% 30.28 in 10.0 mi NW 12.7 mph - N/A   Overcast
3:55 PM 25.3 °F 14.1 °F 12.6 °F 58% 30.28 in 10.0 mi NNW 12.7 mph - N/A   Overcast
4:15 PM 25.5 °F 16.9 °F 13.5 °F 60% 30.28 in 10.0 mi NW 8.1 mph - N/A Snow Light Snow
4:35 PM 25.3 °F 16.7 °F 13.5 °F 61% 30.28 in 10.0 mi NNW 8.1 mph - N/A   Overcast
4:55 PM 25.5 °F 16.2 °F 12.9 °F 59% 30.27 in 10.0 mi NW 9.2 mph - N/A   Overcast
5:15 PM 27.0 °F 17.3 °F 13.3 °F 56% 30.27 in 10.0 mi NW 10.4 mph - N/A   Mostly Cloudy
5:35 PM 27.0 °F 18.0 °F 12.9 °F 56% 30.27 in 10.0 mi NW 9.2 mph - N/A   Mostly Cloudy
5:55 PM 26.6 °F 20.0 °F 13.1 °F 57% 30.27 in 10.0 mi NW 5.8 mph - N/A   Scattered Clouds
6:15 PM 26.6 °F 20.0 °F 12.2 °F 55% 30.26 in 10.0 mi NNW 5.8 mph - N/A   Mostly Cloudy
6:35 PM 26.6 °F 21.2 °F 12.4 °F 55% 30.26 in 10.0 mi North 4.6 mph - N/A   Mostly Cloudy
6:55 PM 26.1 °F - 13.1 °F 58% 30.26 in 10.0 mi Calm Calm - N/A   Clear
7:15 PM 25.7 °F - 13.3 °F 59% 30.27 in 10.0 mi Calm Calm - N/A   Clear
7:35 PM 25.2 °F - 12.7 °F 59% 30.27 in 10.0 mi Calm Calm - N/A   Clear
7:55 PM 22.8 °F - 12.4 °F 64% 30.27 in 10.0 mi Calm Calm - N/A   Clear
8:15 PM 22.3 °F - 12.0 °F 65% 30.27 in 10.0 mi Calm Calm - N/A   Clear
8:35 PM 21.2 °F - 12.4 °F 69% 30.27 in 10.0 mi Calm Calm - N/A   Clear
8:55 PM 18.0 °F - 10.6 °F 73% 30.27 in 10.0 mi Calm Calm - N/A   Clear
9:15 PM 18.9 °F 13.7 °F 11.7 °F 74% 30.27 in 10.0 mi ESE 3.5 mph - N/A   Clear
9:35 PM 19.4 °F - 12.7 °F 75% 30.28 in 10.0 mi Calm Calm - N/A   Clear
9:55 PM 17.2 °F - 11.5 °F 78% 30.28 in 10.0 mi Calm Calm - N/A   Clear
10:15 PM 16.7 °F - 12.0 °F 82% 30.29 in 10.0 mi Calm Calm - N/A   Clear
10:35 PM 18.1 °F - 13.1 °F 81% 30.29 in 10.0 mi Calm Calm - N/A   Clear
10:55 PM 16.3 °F 10.8 °F 11.1 °F 80% 30.29 in 10.0 mi ESE 3.5 mph - N/A   Clear
11:15 PM 15.8 °F - 11.1 °F 82% 30.29 in 10.0 mi Calm Calm - N/A   Clear
11:35 PM 14.7 °F 9.0 °F 10.9 °F 85% 30.29 in 10.0 mi SE 3.5 mph - N/A   Clear
11:55 PM 14.5 °F 7.1 °F 10.9 °F 86% 30.29 in 10.0 mi SSE 4.6 mph - N/A   Clear